Weather History for KEYW - December, 2013

Change the Weather History Date:

Friday, December 6, 2013

  Actual Average Record
Temperature  
Mean Temperature 79 °F 73 °F  
Max Temperature 81 °F 77 °F 86 °F (1978)
Min Temperature 77 °F 69 °F 49 °F (1876)
Degree Days  
Heating Degree Days 0 0  
Month to date heating degree days 0 0  
Since 1 July heating degree days 0 1  
Cooling Degree Days 14 8  
Month to date cooling degree days 63 50  
Year to date cooling degree days 4824 4583  
Growing Degree Days 29 (Base 50)    
Moisture  
Dew Point 70 °F    
Average Humidity 80    
Maximum Humidity 85    
Minimum Humidity 74    
Precipitation  
Precipitation 0.00 in 0.08 in 0.96 in (1977)
Month to date precipitation 0.09 0.49  
Year to date precipitation 45.69 38.10  
Snow  
Snow 0.00 in - - ()
Month to date snowfall 0.0  
Since 1 July snowfall 0.0  
Snow Depth 0.00 in    
Sea Level Pressure  
Sea Level Pressure 30.11 in    
Wind  
Wind Speed 14 mph (ESE)    
Max Wind Speed 20 mph    
Max Gust Speed 25 mph    
Visibility 10 miles    
Events      
T = Trace of Precipitation, MM = Missing Value Source: NWS Daily Summary

Daily Weather History Graph

Daily Weather History Graph

Search for Another Location

Airport or City:

Trip Planner

Search our weather history database for the weather conditions in past years. The results will help you decide how hot, cold, wet, or windy it might be!

Date:

Astronomy

Dec. 06, 2013 Rise Set
Actual Time 6:57 AM EST 5:38 PM EST
Civil Twilight 6:33 AM EST 6:03 PM EST
Nautical Twilight 6:04 AM EST 6:31 PM EST
Astronomical Twilight 5:37 AM EST 6:59 PM EST
Moon 10:16 AM EST (12/6) 9:52 PM EST (12/6)
Length of Visible Light 11h 30m
Length of Day
10h 40m
Waxing Crescent, 19% of the Moon is Illuminated
Dec 6
Waxing Crescent
Dec 9
First Quarter
Dec 17
Full
Dec 25
Last Quarter
Jan 1
New

Hourly Weather History & Observations

Time (EST) Temp. Heat Index Dew Point Humidity Pressure Visibility Wind Dir Wind Speed Gust Speed Precip Events Conditions
12:53 AM 78.1 °F - 70.0 °F 76% 30.09 in 10.0 mi ESE 13.8 mph - N/A   Clear
1:53 AM 78.1 °F - 69.1 °F 74% 30.07 in 10.0 mi SE 16.1 mph - N/A   Clear
2:53 AM 77.0 °F - 69.1 °F 76% 30.06 in 10.0 mi ESE 16.1 mph - N/A   Clear
3:53 AM 77.0 °F - 69.1 °F 76% 30.06 in 10.0 mi ESE 17.3 mph - N/A   Partly Cloudy
4:53 AM 77.0 °F - 69.1 °F 76% 30.07 in 10.0 mi ESE 16.1 mph - N/A   Partly Cloudy
5:53 AM 77.0 °F - 69.1 °F 76% 30.09 in 10.0 mi ESE 12.7 mph - N/A   Clear
6:53 AM 77.0 °F - 70.0 °F 79% 30.10 in 10.0 mi ESE 12.7 mph - N/A   Clear
7:53 AM 77.0 °F - 71.1 °F 82% 30.12 in 10.0 mi ESE 12.7 mph - N/A   Clear
8:53 AM 79.0 °F - 72.0 °F 79% 30.14 in 10.0 mi ESE 11.5 mph - N/A   Partly Cloudy
9:53 AM 80.1 °F 83.8 °F 72.0 °F 76% 30.15 in 10.0 mi ESE 15.0 mph - N/A   Partly Cloudy
10:53 AM 78.1 °F - 73.0 °F 84% 30.15 in 10.0 mi SE 15.0 mph - N/A   Mostly Cloudy
11:53 AM 79.0 °F - 72.0 °F 79% 30.14 in 10.0 mi SSE 16.1 mph - N/A   Mostly Cloudy
12:53 PM 78.1 °F - 70.0 °F 76% 30.12 in 10.0 mi SSE 9.2 mph - N/A   Mostly Cloudy
1:53 PM 80.1 °F 83.6 °F 71.1 °F 74% 30.10 in 10.0 mi ESE 15.0 mph - N/A   Overcast
2:53 PM 80.1 °F 83.6 °F 71.1 °F 74% 30.09 in 10.0 mi ESE 15.0 mph - N/A   Clear
3:53 PM 80.1 °F 83.6 °F 71.1 °F 74% 30.09 in 10.0 mi ESE 16.1 mph - N/A   Clear
4:53 PM 79.0 °F - 70.0 °F 74% 30.09 in 10.0 mi ESE 15.0 mph - N/A   Clear
5:53 PM 78.1 °F - 69.1 °F 74% 30.11 in 10.0 mi ESE 15.0 mph - N/A   Clear
6:53 PM 78.1 °F - 69.1 °F 74% 30.13 in 10.0 mi ESE 12.7 mph - N/A   Clear
7:53 PM 77.0 °F - 69.1 °F 76% 30.14 in 10.0 mi ESE 11.5 mph - N/A   Clear
8:53 PM 77.0 °F - 68.0 °F 74% 30.15 in 10.0 mi ESE 12.7 mph - N/A   Clear
9:53 PM 77.0 °F - 68.0 °F 74% 30.16 in 10.0 mi ESE 12.7 mph - N/A   Clear
10:53 PM 77.0 °F - 68.0 °F 74% 30.17 in 10.0 mi ESE 10.4 mph - N/A   Partly Cloudy
11:53 PM 77.0 °F - 66.0 °F 69% 30.16 in 10.0 mi ESE 15.0 mph - N/A   Clear